Regional Weather Roundup
Issued by NWS

Home | Current Version | Previous Version | Text Only | Print | Product List | Glossary Off
Versions: 1 2 3 4 5 6 7 8 9 10 11 12 13 14 15 16 17 18 19 20 21 22 23 24 25 26 27 28 29 30 31 32 33 34 35 36 37 38 39 40 41 42 43 44 45 46 47 48 49 50

000
ASUS43 KOAX 200710
RWRNE

WEATHER ROUNDUP FOR NEBRASKA
NATIONAL WEATHER SERVICE OMAHA NE
200 AM CDT WED SEP 20 2017

NOTES: SATELLITE DATA IS BEING USED TO AUGMENT CLOUD COVER ABOVE
       12000 FEET.
       "FAIR" INDICATES FEW OR NO CLOUDS BELOW 12,000 FEET WITH NO
       SIGNIFICANT WEATHER AND/OR OBSTRUCTIONS TO VISIBILITY.


NEZ001>004-019>022-054>056-200800-
NEBRASKA PANHANDLE

CITY           SKY/WX    TMP DP  RH WIND       PRES   REMARKS
SCOTTSBLUFF    CLOUDY    56  31  38 W18G25    29.85R
ALLIANCE       CLOUDY    52  33  48 NW17      29.80F
CHADRON        MOCLDY    46  37  71 SW9       29.81R
GORDON         FAIR      54  38  56 W9        29.77S
KIMBALL        CLOUDY    54  27  35 NW15G23   29.88R
SIDNEY         CLOUDY    47  33  58 N7        29.86R
$$

NEZ057>060-069>072-079>082-200800-
SOUTHWEST NEBRASKA

CITY           SKY/WX    TMP DP  RH WIND       PRES   REMARKS
NORTH PLATTE   CLEAR     47  41  80 NW6       29.79R
IMPERIAL       CLEAR     54  31  41 NW14      29.83R
LEXINGTON      CLEAR     51  46  82 NW6       29.76R
MCCOOK         CLEAR     56  38  50 W12       29.79R
OGALLALA       CLEAR     50  35  55 NW5       29.82R
$$

NEZ005>010-023>029-035>040-094-200800-
NORTH CENTRAL NEBRASKA

CITY           SKY/WX    TMP DP  RH WIND       PRES   REMARKS
VALENTINE      PTCLDY    53  46  77 CALM      29.72R
AINSWORTH      PTCLDY    55  48  76 NW9       29.76R
BROKEN BOW     CLEAR     57  45  64 CALM      29.74R
O`NEILL        PTCLDY    58  49  72 N5        29.73R
ORD            CLOUDY    56  48  74 NW3       29.70R
THEDFORD       CLEAR     51  43  73 W3        29.77R
$$

NEZ041-046>049-061>064-073>077-083>087-200800-
SOUTH CENTRAL NEBRASKA

CITY           SKY/WX    TMP DP  RH WIND       PRES   REMARKS
GRAND ISLAND   CLOUDY    64  51  62 N14       29.71R
AURORA         CLEAR     66  48  51 N21G28    29.68R
HASTINGS       CLEAR     65  48  54 N14       29.71R
HEBRON         PTCLDY    80  67  66 W9G17     29.64R
HOLDREGE       CLEAR     60  46  61 N6        29.74R
KEARNEY        CLEAR     62  48  60 N9        29.73R
YORK           MOCLDY    66  57  72 NW15      29.65R
$$

NEZ011>018-030>034-042>045-200800-
NORTHEAST NEBRASKA

CITY           SKY/WX    TMP DP  RH WIND       PRES   REMARKS
NORFOLK        CLOUDY    67  51  56 N15G26    29.68R
ALBION         PTCLDY    65  49  56 N9G17     29.69R
BLAIR          CLEAR     77  71  80 S17G28    29.60R
COLUMBUS       CLOUDY    70  54  56 N21G30    29.65R
FREMONT        PTCLDY    78  70  76 S12G18    29.61R
TEKAMAH        CLEAR     77  69  76 S10G20    29.59R
WAYNE          CLOUDY    61  58  91 N9        29.68R
$$

NEZ050>053-065>068-078-088>093-200800-
SOUTHEAST NEBRASKA

CITY           SKY/WX    TMP DP  RH WIND       PRES   REMARKS
LINCOLN        CLOUDY    80  71  74 S21G28    29.59R
OMAHA EPPLEY   MOCLDY    77  69  76 S18       29.60R
BEATRICE       PTCLDY    80  71  75 S20G26    29.60S
FALLS CITY     CLOUDY    78  69  73 S16G24    29.64F
NEBRASKA CITY  CLOUDY    77  73  86 S17G23    29.64R
PLATTSMOUTH    CLOUDY    77  71  82 S15G22    29.62R
$$

NEZ044-045-051>053-067-200800-
OMAHA AREA

CITY           SKY/WX    TMP DP  RH WIND       PRES   REMARKS
OMAHA EPPLEY   MOCLDY    77  69  76 S18       29.60R
BLAIR          CLEAR     77  71  80 S17G28    29.60R
FREMONT        PTCLDY    78  70  76 S12G18    29.61R
MILLARD        CLEAR     80  72  77 S9G20     29.60R
OFFUTT AFB     CLEAR     76  69  79 S16       29.59F
PLATTSMOUTH    CLOUDY    77  71  82 S15G22    29.62R
WAHOO          FAIR      78  71  77 S13G18    29.60R
$$



USA.gov is the U.S. government's official web portal to all federal, state and local government web resources and services.